Regional Weather Roundup
Issued by NWS

Home | Current Version | Previous Version | Graphics & Text | Print | Product List | Glossary On
Versions: 1 2 3 4 5 6 7 8 9 10 11 12 13 14 15 16 17 18 19 20 21 22 23 24 25 26 27 28 29 30 31 32 33 34 35 36 37 38 39 40 41 42 43 44 45 46 47 48 49 50
010
ASUS45 KTFX 081410
RWRMT
MONTANA REGIONAL WEATHER ROUNDUP
NATIONAL WEATHER SERVICE GREAT FALLS MT
700 AM MST MON FEB 08 2016

NOTE: "FAIR" INDICATES FEW OR NO CLOUDS BELOW 12000 FEET WITH NO
SIGNIFICANT WEATHER AND/OR OBSTRUCTIONS TO VISIBILITY.

MTZ001>007-043-081500-
WEST OF THE DIVIDE

CITY           SKY/WX    TMP DP  RH WIND       PRES   REMARKS
KALISPELL      CLOUDY    31  27  85 SE5       30.61F
MISSOULA       CLOUDY    31  25  78 CALM      30.65S
BUTTE          CLOUDY    22  17  81 CALM      30.57R
MULLAN PASS    CLOUDY    32  24  72 S6        30.56S WCI  26
ANACONDA         N/A     28  21  74 CALM      30.58S
DEER LODGE       N/A     30  25  80 CALM      30.60S
HAMILTON         N/A     32  27  80 CALM      30.62S
LIBBY            N/A     28  27  93 CALM      30.65F
PLAINS           N/A     30  25  82 CALM      30.61R
$$

MTZ008-052>055-081500-
SOUTHWEST MONTANA

CITY           SKY/WX    TMP DP  RH WIND       PRES   REMARKS
BOZEMAN        CLOUDY    28  22  78 E3        30.56R
DILLON         CLOUDY    28  18  66 SW3       30.58R
ENNIS          CLEAR     23  19  86 CALM      30.63R
TWIN BRIDGES     N/A     18  10  70 E6        30.50R WCI  10
$$

MTZ009-010-012-014-046-048-049-054-081500-
EAST SLOPES AND CENTRAL MONTANA

CITY           SKY/WX    TMP DP  RH WIND       PRES   REMARKS
CUT BANK       MOCLDY    39  24  55 W23G29    30.37S WCI  28
GREAT FALLS    CLOUDY    37  23  56 SW14      30.42S WCI  28
MALMSTROM AFB  CLOUDY    36  25  64 SW14      30.43S WCI  27
HELENA         CLOUDY    25  19  78 CALM      30.54R
CHOTEAU          N/A     45  27  49 W17G23    30.41S
CONRAD           N/A     41  30  65 SE2       30.37R
$$

MTZ011-013-016-021-045-047-050-051-081500-
NORTH CENTRAL MONTANA

CITY           SKY/WX    TMP DP  RH WIND       PRES   REMARKS
HAVRE          CLOUDY    23  18  81 W10       30.39F WCI  12
LEWISTOWN      CLOUDY    30  19  63 SW10      30.41R WCI  21
N BAR RANCH      N/A     39  23  52 NW15      30.39S WCI  31
CHINOOK          N/A     18  12  79 CALM      30.40F
$$

MTZ017>020-022>027-061-062-081500-
NORTHEAST MONTANA

CITY           SKY/WX    TMP DP  RH WIND       PRES   REMARKS
GLASGOW        CLOUDY    22  15  75 NW5       30.39F
JORDAN           N/A     24  18  77 W7        30.39F WCI  16
SIDNEY         CLOUDY    25  14  63 NW13      30.39S WCI  13
WOLF POINT     CLOUDY    24  17  74 SW7       30.41F WCI  16
PLENTYWOOD       N/A     18  14  86 W5        30.35F
POPLAR           N/A     21  18  86 SW5       30.41F
SCOBEY           N/A     20   7  57 CALM      30.31F
$$

MTZ028>42-056>058-081500-
SOUTHCENTRAL AND SOUTHEAST MONTANA

CITY           SKY/WX    TMP DP  RH WIND       PRES   REMARKS
BAKER          CLOUDY    20  13  74 W7        30.38R WCI  11
BILLINGS       CLOUDY    29  14  53 SW14      30.44R WCI  18
LIVINGSTON     CLOUDY    41  22  46 W21       30.49R
MILES CITY     CLOUDY    24  15  68 NW7       30.42R WCI  16
EKALAKA          N/A     20  10  65 NW3       30.30R
FORSYTH          N/A     25  12  58 CALM      30.43S
LAUREL           N/A     26  12  55 SW2       30.38R
ROUNDUP          N/A     21   9  60 CALM      30.29R
$$

REGIONAL REPORTS...DAKOTAS

CITY           SKY/WX    TMP DP  RH WIND       PRES   REMARKS
WILLISTON      CLOUDY    23  16  74 NW10      30.37R WCI  12
MINOT          CLEAR     24  14  65 W22G29    30.26R WCI   9
DICKINSON      CLOUDY    18  13  80 NW16      30.30R WCI   3
BEACH            N/A     23  16  74 NW12      30.39R WCI  12
CROSBY           N/A     19  19 100 NW12      30.36S WCI   7
TIOGA            N/A     18  18 100 W12       30.36F WCI   5
WATFORD CITY     N/A     21  16  79 NW12      30.35F WCI   9
BISMARCK       CLEAR     25  17  72 NW18      30.27S WCI  11
GRAND FORKS    LGT SNOW  14   9  80 N16       30.17R WCI  -2
FARGO          LGT SNOW  13   8  81 N23       30.14S WCI  -6
BUFFALO SD       N/A     22  13  68 W10       30.29R WCI  11
RAPID CITY       N/A     29   9  43 NW25G37   30.31R WCI  14
$$

REGIONAL REPORTS...WYOMING/IDAHO/WASHINGTON

CITY           SKY/WX    TMP DP  RH WIND       PRES   REMARKS
GILLETTE       CLOUDY    22  10  60 W13       30.39S WCI  10
SHERIDAN       CLOUDY    26  16  65 CALM      30.42R
BUFFALO WY     CLOUDY    24  12  60 SW5       30.39S
CODY           CLOUDY    21  12  68 CALM      30.43R
YELLOWSTONE LA   N/A      7   4  87 NW3       30.60R
IDAHO FALLS    FOG       22  20  92 N8        30.71R VSB 1   WCI  12
SALMON         CLOUDY    23  18  80 CALM      30.72R
BOISE          CLEAR     32  28  85 SE8       30.68R WCI  25
SPOKANE        MOCLDY    30  27  88 NE6       30.60S WCI  24
$$

REGIONAL REPORTS...ALBERTA

CITY           SKY/WX    TMP DP  RH WIND       PRES   REMARKS
EDMONTON       MOCLDY    28  18  64 SW9       30.25S WCI  20
CALGARY        MOCLDY    46  23  39 W17G25    30.27S
MEDICINE HAT   MOCLDY    21  18  86 S3        30.35R
WATERTON GATE    N/A     39  25  56 SW29G38     N/A  WCI  28
CARDSTON         N/A     45  25  45 W18G29      N/A
MILK RIVER       N/A     34  25  69 NW14        N/A  WCI  24
ONEFOUR          N/A     19  12  73 E1          N/A
$$

REGIONAL REPORTS...SASKATCHEWAN

CITY           SKY/WX    TMP DP  RH WIND       PRES   REMARKS
SWIFT CURRENT  CLOUDY    21  16  79 SW8       30.34R WCI  12
REGINA         PTCLDY    14  12  92 W7        30.36R WCI   4
SASKATOON      MOCLDY    14  12  92 W5        30.37S
CYPRESS HILLS    N/A     27  10  50 W3          N/A
ROCKGLEN         N/A     19  14  79 NW6         N/A  WCI  11
ASSINIBOIA       N/A     27  21  80 S5          N/A
$$




USA.gov is the U.S. government's official web portal to all federal, state and local government web resources and services.